Regional Weather Roundup
Issued by NWS Newport/Morehead, NC

Current Version | Previous Version | Graphics & Text | Print | Product List | Glossary Off
Versions: 1 2 3 4 5 6 7 8 9 10 11 12 13 14 15 16 17 18 19 20 21 22 23 24 25 26 27 28 29 30 31 32 33 34 35 36 37 38 39 40 41 42 43 44 45 46 47 48 49 50

000
ASUS42 KMHX 040725
RWRMHX
WEATHER ROUNDUP FOR EASTERN NORTH CAROLINA
NATIONAL WEATHER SERVICE NEWPORT/MOREHEAD CITY NC
300 AM EDT WED MAY 04 2016

NOTE: "FAIR" INDICATES FEW OR NO CLOUDS BELOW 12,000 FEET
WITH NO SIGNIFICANT WEATHER AND/OR OBSTRUCTIONS TO VISIBILITY

NCZ015>017-031-032-045>047-102-103-040800-
NORTH COAST

CITY           SKY/WX    TMP DP  RH WIND       PRES   REMARKS
EDENTON        CLOUDY    64  64 100 CALM      29.66F
ELIZABETH CITY CLOUDY    64  63  96 CALM      29.66F
KITTY HAWK     CLOUDY    64  62  93 S3        29.65F
MANTEO         NOT AVBL

$$

NCZ045>047-081-094-103-104-040800-
CENTRAL COAST

CITY           SKY/WX    TMP DP  RH WIND       PRES   REMARKS
FRISCO         CLOUDY    69  68  96 W3        29.67F
SWANQUARTER    NOT AVBL

$$

NCZ095-097-098-100-101-040800-
SOUTHERN COAST

CITY           SKY/WX    TMP DP  RH WIND       PRES   REMARKS
BEAUFORT       LGT RAIN  71  69  93 W13       29.67F
CEDAR ISLAND   NOT AVBL
JACKSONVILLE   CLOUDY    70  67  90 NW3       29.68F
PINEY ISLAND   NOT AVBL
WILMINGTON     CLOUDY    70  67  90 SW7       29.69F


$$

NCZ011>013-027>030-043-044-078>080-089-090>093-098-040800-
COASTAL PLAIN

CITY           SKY/WX    TMP DP  RH WIND       PRES   REMARKS
AHOSKIE        CLOUDY    62  60  96 CALM      29.68F
CLINTON        CLOUDY    66  66  99 CALM      29.69F
ELIZABETHTOWN  CLOUDY    70  68  96 SW5       29.69F
GOLDSBORO      MOCLDY    64  64 100 W2        29.67F
GREENVILLE     CLOUDY    63  63 100 NW3       29.72R
HAVELOCK       TSTM      65  63  93 E3        29.70R FOG
KENANSVILLE    CLOUDY    65  64  97 CALM      29.70F
KINSTON        CLOUDY    64  63  97 CALM      29.68F
NEW BERN       MOCLDY    63  60  90 CALM      29.68F
RICHLANDS      CLOUDY    68  67  96 CALM      29.69F
ROCKY MOUNT    CLEAR     60  60 100 CALM      29.69S FOG
WASHINGTON     CLOUDY    63  61  95 CALM      29.66F
WHITEVILLE     NOT AVBL

$$

AMZ130-135-150-152-154-156-158-170-250-252-270-ANZ085-086-088-633-658-670-040800-
MARINE OBSERVATIONS

STATION/POSITION TIME  TEMP    WIND        PRES    WAVE   SWELL
                       AIR SEA DIR/SP/G            HT/PER HT/PER
                 (UTC) (F)     (DEG/KT/KT) (MB)    (FT/S) (FT/S)
CHESAPEAKE LIGHT 0700   58     350/  9/  9 1006.3
64 E VA BEACH    0650   56 55  160/  4/  6 1004.7    3/ 7   3/ 7
DUCK             NOT AVBL
2 E DUCK         0611      58                N/A     2/ 9
OREGON INLET     0700   67 71  250/  2/  5 1004.5
13E OREGON INLT  0700      62                N/A     4/ 7   3/ 7
HATTERAS CG      0700   70 69  230/  4/  5 1004.5
DIAMOND BUOY     0650   72 72  250/ 10/ 12 1005.2    4/ 7   3/ 7
CAPE LOOKOUT     0700   71     240/ 14/ 18 1004.2
BEAUFORT LAB     0700   70 68  260/  7/ 13 1004.3
30 SE NEW RVR IN 0625      72                N/A     6/ 7
27 SE WRIGHTSVLE 0708   73 72  260/ 17/ 23   N/A
5 SE WRIGHTSVLE  0608   72 70  250/ 17/ 23 1006.1
225 S CAPE HAT   0650   73 74  190/ 17/ 19 1009.2    5/ 6
41 SE CHARLESTON 0650   73 74  170/  8/  8 1006.8    4/ 5   3/ 5

$$




USA.gov is the U.S. government's official web portal to all federal, state and local government web resources and services.